San Diego, CA

3:45 AM PDT on August 23, 2017 (GMT -0700)
San Diego International-Lindbergh

Weather History for KSAN - February, 2013

Change the Weather History Date:

Wednesday, February 27, 2013

  Actual Average Record
Temperature  
Mean Temperature 59 °F 58 °F  
Max Temperature 70 °F 65 °F 83 °F (1883)
Min Temperature 48 °F 52 °F 39 °F (1876)
Degree Days  
Heating Degree Days 6 7  
Month to date heating degree days 232 195  
Since 1 July heating degree days 828 850  
Cooling Degree Days 0 0  
Month to date cooling degree days 1 0  
Year to date cooling degree days 1 2  
Growing Degree Days 9 (Base 50)    
Moisture  
Dew Point 28 °F    
Average Humidity 39    
Maximum Humidity 66    
Minimum Humidity 11    
Precipitation  
Precipitation 0.00 in 0.08 in 1.61 in (1911)
Month to date precipitation 0.63 2.19  
Year to date precipitation 1.84 4.17  
Since 1 July precipitation 5.01  
Snow  
Snow 0.00 in - - ()
Month to date snowfall 0.0  
Year to date snowfall 0.0  
Snow Depth 0.00 in    
Sea Level Pressure  
Sea Level Pressure 30.20 in    
Wind  
Wind Speed 4 mph (NNW)    
Max Wind Speed 15 mph    
Max Gust Speed 20 mph    
Visibility 10 miles    
Events      
T = Trace of Precipitation, MM = Missing Value Source: NWS Daily Summary

Daily Weather History Graph

Daily Weather History Graph

Search for Another Location

Airport or City:

Trip Planner

Search our weather history database for the weather conditions in past years. The results will help you decide how hot, cold, wet, or windy it might be!

Date:

Astronomy

Feb. 27, 2013 Rise Set
Actual Time 6:18 AM PST 5:44 PM PST
Civil Twilight 5:53 AM PST 6:09 PM PST
Nautical Twilight 5:25 AM PST 6:38 PM PST
Astronomical Twilight 4:56 AM PST 7:06 PM PST
Moon 7:59 PM PST (2/27) 7:05 AM PST (2/27)
Length of Visible Light 12h 15m
Length of Day
11h 26m
Waning Gibbous, 96% of the Moon is Illuminated
Feb 27
Waning Gibbous
Mar 4
Last Quarter
Mar 11
New
Mar 19
First Quarter
Mar 27
Full

Hourly Weather History & Observations

Time (PST) Temp. Dew Point Humidity Pressure Visibility Wind Dir Wind Speed Gust Speed Precip Events Conditions
12:51 AM 52.0 °F 39.9 °F 63% 30.12 in 10.0 mi Calm Calm - N/A   Partly Cloudy
1:51 AM 51.1 °F 37.0 °F 59% 30.14 in 10.0 mi Calm Calm - N/A   Clear
2:51 AM 48.9 °F 37.0 °F 64% 30.13 in 10.0 mi NNW 3.5 mph - N/A   Clear
3:51 AM 48.9 °F 35.1 °F 59% 30.14 in 10.0 mi North 3.5 mph - N/A   Clear
4:51 AM 48.0 °F 33.1 °F 56% 30.15 in 10.0 mi Calm Calm - N/A   Clear
5:51 AM 48.0 °F 30.9 °F 52% 30.17 in 10.0 mi Calm Calm - N/A   Partly Cloudy
6:51 AM 48.0 °F 30.0 °F 50% 30.19 in 10.0 mi Calm Calm - N/A   Partly Cloudy
7:51 AM 55.0 °F 28.0 °F 35% 30.21 in 10.0 mi Calm Calm - N/A   Scattered Clouds
8:51 AM 61.0 °F 23.0 °F 23% 30.22 in 10.0 mi Calm Calm - N/A   Scattered Clouds
9:51 AM 64.9 °F 21.0 °F 19% 30.22 in 10.0 mi Calm Calm - N/A   Scattered Clouds
10:51 AM 69.1 °F 12.9 °F 11% 30.22 in 10.0 mi Variable 6.9 mph - N/A   Scattered Clouds
11:51 AM 70.0 °F 21.0 °F 16% 30.21 in 10.0 mi WNW 8.1 mph - N/A   Scattered Clouds
12:51 PM 68.0 °F 26.1 °F 21% 30.19 in 10.0 mi WNW 10.4 mph - N/A   Scattered Clouds
1:51 PM 68.0 °F 18.0 °F 15% 30.18 in 10.0 mi WNW 12.7 mph - N/A   Scattered Clouds
2:51 PM 66.9 °F 28.0 °F 23% 30.18 in 10.0 mi NW 12.7 mph - N/A   Scattered Clouds
3:51 PM 66.9 °F 28.9 °F 24% 30.18 in 10.0 mi WNW 11.5 mph - N/A   Partly Cloudy
4:51 PM 68.0 °F 25.0 °F 20% 30.18 in 10.0 mi NNW 11.5 mph - N/A   Partly Cloudy
5:51 PM 66.0 °F 21.9 °F 19% 30.19 in 10.0 mi North 6.9 mph - N/A   Partly Cloudy
6:51 PM 63.0 °F 25.0 °F 24% 30.22 in 10.0 mi North 10.4 mph - N/A   Partly Cloudy
7:51 PM 62.1 °F 28.0 °F 28% 30.24 in 10.0 mi Calm Calm - N/A   Clear
8:51 PM 60.1 °F 28.0 °F 30% 30.26 in 10.0 mi Calm Calm - N/A   Clear
9:51 PM 59.0 °F 28.9 °F 32% 30.27 in 10.0 mi Calm Calm - N/A   Clear
10:51 PM 57.0 °F 30.0 °F 36% 30.27 in 10.0 mi ENE 3.5 mph - N/A   Clear
11:51 PM 55.9 °F 30.0 °F 37% 30.27 in 10.0 mi Calm Calm - N/A   Clear